NKS226 KFLL-KSRQ

Flight info

Callsign NKS226
Flight time 0h 34m
Altitude 20000
Route BNICE2 COREA TUBBA CURSD
Aircraft A320/M-SDE3FGHIRWY/LB1

Departure

Time 2026-05-03 20:26
Airport Fort Lauderdale Hollywood International Airport (KFLL)

Arrival

Time 2026-05-03 21:01
Airport Sarasota Bradenton International Airport (KSRQ)
Time Latitude Longitude Altitude Speed Heading
2026-05-03 20:15 26.07200 -80.14650 16 ft 0 kts 280°
2026-05-03 20:15 26.07202 -80.14659 16 ft 3 kts 280°
2026-05-03 20:16 26.07206 -80.14688 16 ft 5 kts 279°
2026-05-03 20:16 26.07204 -80.14753 16 ft 13 kts 249°
2026-05-03 20:16 26.07139 -80.14840 16 ft 16 kts 232°
2026-05-03 20:16 26.07164 -80.14950 17 ft 17 kts 298°
2026-05-03 20:17 26.07154 -80.15055 16 ft 12 kts 298°
2026-05-03 20:17 26.07220 -80.15125 16 ft 14 kts 338°
2026-05-03 20:17 26.07328 -80.15127 16 ft 17 kts 359°
2026-05-03 20:17 26.07452 -80.15130 16 ft 18 kts 347°
2026-05-03 20:18 26.07489 -80.15257 16 ft 20 kts 269°
2026-05-03 20:18 26.07491 -80.15418 16 ft 22 kts 270°
2026-05-03 20:18 26.07492 -80.15595 16 ft 24 kts 270°
2026-05-03 20:18 26.07492 -80.15789 16 ft 26 kts 270°
2026-05-03 20:19 26.07494 -80.15988 16 ft 26 kts 270°
2026-05-03 20:19 26.07495 -80.16169 16 ft 24 kts 270°
2026-05-03 20:19 26.07496 -80.16361 16 ft 26 kts 270°
2026-05-03 20:19 26.07497 -80.16517 16 ft 13 kts 270°
2026-05-03 20:20 26.07498 -80.16599 16 ft 11 kts 277°
2026-05-03 20:20 26.07515 -80.16631 16 ft 0 kts 319°
2026-05-03 20:20 26.07517 -80.16632 16 ft 3 kts 323°
2026-05-03 20:20 26.07554 -80.16642 16 ft 7 kts 356°
2026-05-03 20:21 26.07587 -80.16643 16 ft 0 kts
2026-05-03 20:22 26.07592 -80.16643 16 ft 4 kts
2026-05-03 20:22 26.07665 -80.16640 20 ft 14 kts 14°
2026-05-03 20:22 26.07695 -80.16547 18 ft 5 kts 91°
2026-05-03 20:23 26.07695 -80.16546 18 ft 0 kts 91°
2026-05-03 20:25 26.07694 -80.16490 19 ft 35 kts 90°
2026-05-03 20:25 26.07693 -80.16155 19 ft 94 kts 90°
2026-05-03 20:26 26.07690 -80.15143 30 ft 160 kts 89°
2026-05-03 20:26 26.07705 -80.13883 784 ft 165 kts 86°
2026-05-03 20:26 26.07743 -80.12573 1584 ft 176 kts 86°
2026-05-03 20:26 26.07793 -80.11152 1949 ft 194 kts 83°
2026-05-03 20:27 26.08149 -80.09648 2209 ft 215 kts 64°
2026-05-03 20:27 26.08990 -80.08173 2479 ft 239 kts 47°
2026-05-03 20:27 26.10283 -80.06884 2924 ft 261 kts 32°
2026-05-03 20:27 26.11935 -80.05983 3641 ft 270 kts 18°
2026-05-03 20:28 26.13728 -80.05286 3921 ft 272 kts 12°
2026-05-03 20:28 26.15591 -80.05022 4010 ft 270 kts 356°
2026-05-03 20:28 26.17427 -80.05338 4022 ft 266 kts 340°
2026-05-03 20:28 26.19178 -80.06017 4023 ft 266 kts 338°
2026-05-03 20:29 26.20865 -80.06844 4026 ft 263 kts 325°
2026-05-03 20:29 26.22263 -80.08132 4029 ft 260 kts 309°
2026-05-03 20:29 26.23267 -80.09795 4023 ft 259 kts 294°
2026-05-03 20:29 26.23940 -80.11655 4025 ft 259 kts 290°
2026-05-03 20:30 26.24603 -80.13526 4123 ft 263 kts 291°
2026-05-03 20:30 26.25271 -80.15425 5099 ft 263 kts 288°
2026-05-03 20:30 26.25675 -80.17408 6056 ft 264 kts 278°
2026-05-03 20:30 26.25967 -80.19437 6910 ft 267 kts 278°
2026-05-03 20:31 26.26259 -80.21486 7769 ft 269 kts 278°
2026-05-03 20:31 26.26552 -80.23544 8657 ft 270 kts 278°
2026-05-03 20:31 26.26846 -80.25614 9570 ft 271 kts 277°
2026-05-03 20:31 26.27143 -80.27709 10305 ft 281 kts 277°
2026-05-03 20:32 26.27459 -80.29947 10622 ft 305 kts 277°
2026-05-03 20:32 26.27800 -80.32364 10982 ft 324 kts 277°
2026-05-03 20:32 26.28156 -80.34871 11646 ft 331 kts 277°
2026-05-03 20:32 26.28516 -80.37414 12374 ft 334 kts 277°
2026-05-03 20:33 26.28880 -80.39986 13062 ft 337 kts 277°
2026-05-03 20:33 26.29242 -80.42541 13711 ft 340 kts 277°
2026-05-03 20:33 26.29610 -80.45156 14306 ft 343 kts 277°
2026-05-03 20:33 26.29980 -80.47786 14894 ft 345 kts 277°
2026-05-03 20:34 26.30356 -80.50437 15481 ft 347 kts 277°
2026-05-03 20:34 26.30736 -80.53102 16073 ft 349 kts 277°
2026-05-03 20:34 26.31117 -80.55785 16667 ft 351 kts 276°
2026-05-03 20:34 26.31496 -80.58476 17275 ft 352 kts 276°
2026-05-03 20:35 26.31875 -80.61180 17887 ft 355 kts 276°
2026-05-03 20:35 26.32257 -80.63912 18571 ft 357 kts 276°
2026-05-03 20:35 26.32637 -80.66656 19186 ft 360 kts 276°
2026-05-03 20:35 26.33016 -80.69418 19727 ft 363 kts 276°
2026-05-03 20:36 26.33403 -80.72206 19975 ft 364 kts 276°
2026-05-03 20:36 26.33795 -80.75011 20039 ft 374 kts 276°
2026-05-03 20:36 26.34202 -80.77940 20048 ft 389 kts 276°
2026-05-03 20:36 26.34616 -80.80942 20049 ft 393 kts 276°
2026-05-03 20:37 26.35033 -80.83954 20052 ft 394 kts 276°
2026-05-03 20:37 26.35454 -80.86971 20047 ft 394 kts 276°
2026-05-03 20:37 26.36058 -80.89957 20047 ft 398 kts 284°
2026-05-03 20:37 26.37192 -80.92788 20049 ft 404 kts 295°
2026-05-03 20:38 26.38846 -80.95349 20052 ft 412 kts 306°
2026-05-03 20:38 26.40888 -80.97569 20050 ft 416 kts 311°
2026-05-03 20:38 26.43029 -80.99803 20046 ft 416 kts 311°
2026-05-03 20:38 26.45108 -81.01978 20052 ft 415 kts 311°
2026-05-03 20:39 26.47210 -81.04182 20049 ft 414 kts 311°
2026-05-03 20:39 26.49339 -81.06420 20047 ft 414 kts 310°
2026-05-03 20:39 26.51403 -81.08597 20040 ft 414 kts 310°
2026-05-03 20:39 26.53498 -81.10807 20040 ft 414 kts 310°
2026-05-03 20:40 26.55621 -81.13048 20043 ft 414 kts 310°
2026-05-03 20:40 26.57716 -81.15262 20043 ft 414 kts 310°
2026-05-03 20:40 26.59808 -81.17475 20067 ft 414 kts 310°
2026-05-03 20:40 26.61902 -81.19687 20058 ft 415 kts 310°
2026-05-03 20:41 26.64051 -81.21850 20059 ft 419 kts 316°
2026-05-03 20:41 26.66351 -81.23782 20057 ft 420 kts 317°
2026-05-03 20:41 26.68688 -81.25737 20055 ft 420 kts 317°
2026-05-03 20:41 26.71021 -81.27698 20052 ft 420 kts 317°
2026-05-03 20:42 26.73354 -81.29666 20066 ft 420 kts 316°
2026-05-03 20:42 26.75685 -81.31635 20062 ft 420 kts 316°
2026-05-03 20:42 26.78014 -81.33603 20058 ft 419 kts 316°
2026-05-03 20:42 26.80344 -81.35572 20056 ft 419 kts 316°
2026-05-03 20:43 26.82675 -81.37540 20058 ft 419 kts 316°
2026-05-03 20:43 26.85002 -81.39505 20057 ft 419 kts 316°
2026-05-03 20:43 26.87329 -81.41474 20059 ft 419 kts 316°
2026-05-03 20:43 26.89655 -81.43442 20060 ft 419 kts 316°
2026-05-03 20:44 26.91984 -81.45407 20083 ft 419 kts 316°
2026-05-03 20:44 26.94293 -81.47350 19903 ft 407 kts 316°
2026-05-03 20:44 26.96520 -81.49217 19669 ft 393 kts 316°
2026-05-03 20:44 26.98682 -81.51036 19444 ft 386 kts 316°
2026-05-03 20:45 27.00804 -81.52833 19091 ft 379 kts 316°
2026-05-03 20:45 27.02895 -81.54613 18587 ft 375 kts 316°
2026-05-03 20:45 27.04964 -81.56380 18043 ft 372 kts 316°
2026-05-03 20:45 27.07013 -81.58131 17476 ft 369 kts 316°
2026-05-03 20:46 27.09052 -81.59866 16923 ft 366 kts 317°
2026-05-03 20:46 27.11072 -81.61581 16397 ft 362 kts 317°
2026-05-03 20:46 27.13072 -81.63281 15864 ft 359 kts 317°
2026-05-03 20:46 27.15057 -81.64969 15330 ft 357 kts 317°
2026-05-03 20:47 27.17026 -81.66657 14792 ft 354 kts 315°
2026-05-03 20:47 27.18777 -81.68567 14188 ft 351 kts 309°
2026-05-03 20:47 27.20463 -81.70553 13545 ft 351 kts 309°
2026-05-03 20:47 27.22150 -81.72538 12926 ft 350 kts 309°
2026-05-03 20:48 27.23829 -81.74508 12334 ft 349 kts 309°
2026-05-03 20:48 27.25504 -81.76473 11721 ft 347 kts 309°
2026-05-03 20:48 27.27171 -81.78425 11124 ft 345 kts 309°
2026-05-03 20:48 27.28824 -81.80366 10652 ft 340 kts 309°
2026-05-03 20:49 27.30404 -81.82224 10534 ft 325 kts 309°
2026-05-03 20:49 27.31938 -81.84025 10410 ft 313 kts 309°
2026-05-03 20:49 27.33418 -81.85764 10303 ft 303 kts 309°
2026-05-03 20:49 27.34856 -81.87452 10185 ft 295 kts 309°
2026-05-03 20:50 27.36251 -81.89092 10064 ft 285 kts 309°
2026-05-03 20:50 27.37606 -81.90689 9836 ft 280 kts 309°
2026-05-03 20:50 27.38935 -81.92261 9468 ft 279 kts 309°
2026-05-03 20:50 27.40039 -81.94003 9160 ft 269 kts 288°
2026-05-03 20:51 27.40329 -81.96030 8867 ft 262 kts 267°
2026-05-03 20:51 27.40196 -81.98068 8510 ft 261 kts 264°
2026-05-03 20:51 27.40010 -82.00106 8149 ft 262 kts 263°
2026-05-03 20:51 27.39819 -82.02138 7807 ft 261 kts 263°
2026-05-03 20:52 27.39625 -82.04171 7472 ft 261 kts 263°
2026-05-03 20:52 27.39428 -82.06199 7147 ft 261 kts 263°
2026-05-03 20:52 27.39227 -82.08216 7009 ft 260 kts 263°
2026-05-03 20:52 27.39024 -82.10246 7013 ft 262 kts 263°
2026-05-03 20:53 27.38821 -82.12281 7010 ft 258 kts 263°
2026-05-03 20:53 27.38629 -82.14232 6926 ft 244 kts 263°
2026-05-03 20:53 27.38448 -82.16056 6810 ft 226 kts 263°
2026-05-03 20:53 27.38278 -82.17750 6690 ft 210 kts 264°
2026-05-03 20:54 27.38117 -82.19334 6577 ft 198 kts 263°
2026-05-03 20:54 27.37816 -82.22285 6200 ft 186 kts 264°
2026-05-03 20:54 27.37666 -82.23728 5856 ft 185 kts 264°
2026-05-03 20:55 27.37510 -82.25169 5469 ft 186 kts 264°
2026-05-03 20:55 27.37350 -82.26619 5081 ft 188 kts 264°
2026-05-03 20:55 27.37184 -82.28096 4643 ft 193 kts 264°
2026-05-03 20:55 27.37013 -82.29609 4233 ft 196 kts 264°
2026-05-03 20:56 27.36827 -82.31139 3878 ft 198 kts 263°
2026-05-03 20:56 27.36637 -82.32672 3549 ft 197 kts 264°
2026-05-03 20:56 27.36447 -82.34186 3189 ft 194 kts 264°
2026-05-03 20:56 27.36263 -82.35691 2752 ft 195 kts 264°
2026-05-03 20:57 27.36071 -82.37195 2345 ft 199 kts 263°
2026-05-03 20:57 27.35886 -82.38735 2051 ft 197 kts 264°
2026-05-03 20:57 27.35699 -82.40265 2000 ft 198 kts 264°
2026-05-03 20:57 27.35725 -82.41813 2003 ft 197 kts 281°
2026-05-03 20:58 27.35939 -82.43334 1926 ft 197 kts 283°
2026-05-03 20:58 27.36177 -82.44807 1771 ft 182 kts 283°
2026-05-03 20:58 27.36392 -82.46116 1578 ft 161 kts 284°
2026-05-03 20:58 27.36573 -82.47325 1374 ft 154 kts 283°
2026-05-03 20:59 27.36755 -82.48501 1151 ft 151 kts 284°
2026-05-03 20:59 27.36937 -82.49659 917 ft 150 kts 285°
2026-05-03 20:59 27.37126 -82.50818 736 ft 152 kts 284°
2026-05-03 20:59 27.37323 -82.51985 579 ft 153 kts 284°
2026-05-03 21:00 27.37618 -82.53112 455 ft 147 kts 303°
2026-05-03 21:00 27.37795 -82.53443 397 ft 146 kts 311°
2026-05-03 21:00 27.38920 -82.54803 52 ft 143 kts 319°
2026-05-03 21:00 27.39503 -82.55466 30 ft 80 kts 313°
2026-05-03 21:01 27.39699 -82.55695 30 ft 18 kts 309°
2026-05-03 21:01 27.39676 -82.55794 31 ft 0 kts 224°
2026-05-03 21:01 27.39668 -82.55801 31 ft 2 kts 219°
2026-05-03 21:01 27.39647 -82.55800 31 ft 4 kts 166°
2026-05-03 21:02 27.39618 -82.55774 31 ft 8 kts 134°
2026-05-03 21:02 27.39564 -82.55711 31 ft 14 kts 134°
2026-05-03 21:02 27.39485 -82.55621 31 ft 18 kts 134°
2026-05-03 21:02 27.39392 -82.55515 30 ft 21 kts 135°
2026-05-03 21:03 27.39289 -82.55395 30 ft 21 kts 134°
2026-05-03 21:03 27.39184 -82.55276 30 ft 16 kts 134°
2026-05-03 21:03 27.39089 -82.55261 31 ft 15 kts 193°
2026-05-03 21:03 27.38993 -82.55253 31 ft 9 kts 180°
2026-05-03 21:04 27.38967 -82.55302 31 ft 7 kts 274°
2026-05-03 21:04 27.38969 -82.55321 31 ft 0 kts 278°